contact:dominique.lefevre@mio.osupytheas.fr, maurice.libes@osupytheas.fr, didier.mallarino@osupytheas.fr
Project:EMSO http://www.emso-fr.org/EMSO-France
Depth: 2436.0 m
Title:EMSO Ligure Ouest : Data MII capteur MICROCAT
DateTime_Computer,Latitude,Longitude,Temperature,Conductivity,Pressure,DateTime_Instrument
DateTime_Computer,Latitude,Longitude,degC,S m-1,dbar,DateTime_Instrument
2023-06-22T00:00:35Z,42.805,6.029,13.3026,4.60094,2470.871,2023-6-22T02:02:50Z
2023-06-22T00:03:38Z,42.805,6.029,13.3031,4.60095,2470.871,2023-6-22T02:05:53Z
2023-06-22T00:06:41Z,42.805,6.029,13.3033,4.60098,2470.847,2023-6-22T02:08:56Z
2023-06-22T00:09:44Z,42.805,6.029,13.3032,4.60102,2470.857,2023-6-22T02:11:59Z
2023-06-22T00:12:47Z,42.805,6.029,13.3035,4.60108,2470.871,2023-6-22T02:15:02Z
2023-06-22T00:15:50Z,42.805,6.029,13.3033,4.60110,2470.857,2023-6-22T02:18:05Z
2023-06-22T00:18:53Z,42.805,6.029,13.3031,4.60117,2470.871,2023-6-22T02:21:08Z
2023-06-22T00:21:56Z,42.805,6.029,13.3035,4.60102,2470.857,2023-6-22T02:24:11Z
2023-06-22T00:25:00Z,42.805,6.029,13.3033,4.60119,2470.857,2023-6-22T02:27:14Z
2023-06-22T00:28:03Z,42.805,6.029,13.3033,4.60111,2470.81,2023-6-22T02:30:17Z
2023-06-22T00:31:06Z,42.805,6.029,13.3031,4.60105,2470.81,2023-6-22T02:33:20Z
2023-06-22T00:34:09Z,42.805,6.029,13.3034,4.60113,2470.787,2023-6-22T02:36:23Z
2023-06-22T00:37:12Z,42.805,6.029,13.3036,4.60119,2470.833,2023-6-22T02:39:26Z
2023-06-22T00:40:15Z,42.805,6.029,13.3032,4.60110,2470.81,2023-6-22T02:42:30Z
2023-06-22T00:43:18Z,42.805,6.029,13.3029,4.60110,2470.833,2023-6-22T02:45:33Z
2023-06-22T00:46:21Z,42.805,6.029,13.3041,4.60097,2470.81,2023-6-22T02:48:36Z
2023-06-22T00:49:24Z,42.805,6.029,13.3029,4.60107,2470.81,2023-6-22T02:51:39Z
2023-06-22T00:52:27Z,42.805,6.029,13.3027,4.60099,2470.857,2023-6-22T02:54:42Z
2023-06-22T00:55:30Z,42.805,6.029,13.3031,4.60104,2470.833,2023-6-22T02:57:45Z
2023-06-22T00:58:33Z,42.805,6.029,13.3027,4.60103,2470.847,2023-6-22T03:00:48Z
2023-06-22T01:01:36Z,42.805,6.029,13.3031,4.60104,2470.8,2023-6-22T03:03:51Z
2023-06-22T01:04:40Z,42.805,6.029,13.3034,4.60104,2470.8,2023-6-22T03:06:54Z
2023-06-22T01:07:43Z,42.805,6.029,13.3036,4.60112,2470.8,2023-6-22T03:09:57Z
2023-06-22T01:10:46Z,42.805,6.029,13.3031,4.60107,2470.824,2023-6-22T03:13:00Z
2023-06-22T01:13:49Z,42.805,6.029,13.3031,4.60119,2470.787,2023-6-22T03:16:03Z
2023-06-22T01:16:52Z,42.805,6.029,13.3030,4.60110,2470.787,2023-6-22T03:19:07Z
2023-06-22T01:19:55Z,42.805,6.029,13.3030,4.60108,2470.81,2023-6-22T03:22:10Z
2023-06-22T01:22:58Z,42.805,6.029,13.3030,4.60110,2470.81,2023-6-22T03:25:13Z
2023-06-22T01:26:01Z,42.805,6.029,13.3032,4.60112,2470.787,2023-6-22T03:28:16Z
2023-06-22T01:29:04Z,42.805,6.029,13.3037,4.60097,2470.8,2023-6-22T03:31:19Z
2023-06-22T01:32:07Z,42.805,6.029,13.3029,4.60122,2470.81,2023-6-22T03:34:22Z
2023-06-22T01:35:10Z,42.805,6.029,13.3026,4.60117,2470.8,2023-6-22T03:37:25Z
2023-06-22T01:38:13Z,42.805,6.029,13.3032,4.60105,2470.777,2023-6-22T03:40:28Z
2023-06-22T01:41:17Z,42.805,6.029,13.3034,4.60104,2470.81,2023-6-22T03:43:31Z
2023-06-22T01:44:20Z,42.805,6.029,13.3031,4.60112,2470.787,2023-6-22T03:46:34Z
2023-06-22T01:47:23Z,42.805,6.029,13.3031,4.60109,2470.824,2023-6-22T03:49:37Z
2023-06-22T01:50:26Z,42.805,6.029,13.3034,4.60107,2470.787,2023-6-22T03:52:40Z
2023-06-22T01:53:29Z,42.805,6.029,13.3031,4.60116,2470.8,2023-6-22T03:55:44Z
2023-06-22T01:56:32Z,42.805,6.029,13.3038,4.60106,2470.787,2023-6-22T03:58:47Z
2023-06-22T01:59:35Z,42.805,6.029,13.3036,4.60125,2470.81,2023-6-22T04:01:50Z
2023-06-22T02:02:38Z,42.805,6.029,13.3040,4.60114,2470.8,2023-6-22T04:04:53Z
2023-06-22T02:05:41Z,42.805,6.029,13.3036,4.60119,2470.763,2023-6-22T04:07:56Z
2023-06-22T02:08:44Z,42.805,6.029,13.3030,4.60125,2470.787,2023-6-22T04:10:59Z
2023-06-22T02:11:47Z,42.805,6.029,13.3044,4.60129,2470.81,2023-6-22T04:14:02Z
2023-06-22T02:14:50Z,42.805,6.029,13.3028,4.60117,2470.787,2023-6-22T04:17:05Z
2023-06-22T02:17:54Z,42.805,6.029,13.3033,4.60114,2470.763,2023-6-22T04:20:08Z
2023-06-22T02:20:57Z,42.805,6.029,13.3039,4.60129,2470.777,2023-6-22T04:23:11Z
2023-06-22T02:24:00Z,42.805,6.029,13.3043,4.60140,2470.824,2023-6-22T04:26:14Z
2023-06-22T02:27:03Z,42.805,6.029,13.3037,4.60136,2470.8,2023-6-22T04:29:17Z
2023-06-22T02:30:06Z,42.805,6.029,13.3034,4.60122,2470.81,2023-6-22T04:32:21Z
2023-06-22T02:33:09Z,42.805,6.029,13.3038,4.60127,2470.81,2023-6-22T04:35:24Z
2023-06-22T02:36:12Z,42.805,6.029,13.3037,4.60122,2470.763,2023-6-22T04:38:27Z
2023-06-22T02:39:15Z,42.805,6.029,13.3033,4.60117,2470.8,2023-6-22T04:41:30Z
2023-06-22T02:42:18Z,42.805,6.029,13.3039,4.60114,2470.763,2023-6-22T04:44:33Z
2023-06-22T02:45:21Z,42.805,6.029,13.3038,4.60126,2470.763,2023-6-22T04:47:36Z
2023-06-22T02:48:24Z,42.805,6.029,13.3036,4.60126,2470.8,2023-6-22T04:50:39Z
2023-06-22T02:51:27Z,42.805,6.029,13.3034,4.60104,2470.787,2023-6-22T04:53:42Z
2023-06-22T02:54:31Z,42.805,6.029,13.3029,4.60126,2470.777,2023-6-22T04:56:45Z
2023-06-22T02:57:34Z,42.805,6.029,13.3031,4.60099,2470.824,2023-6-22T04:59:48Z
2023-06-22T03:00:37Z,42.805,6.029,13.3039,4.60121,2470.763,2023-6-22T05:02:51Z
2023-06-22T03:03:40Z,42.805,6.029,13.3041,4.60113,2470.754,2023-6-22T05:05:54Z
2023-06-22T03:06:43Z,42.805,6.029,13.3027,4.60127,2470.787,2023-6-22T05:08:58Z
2023-06-22T03:09:46Z,42.805,6.029,13.3030,4.60122,2470.777,2023-6-22T05:12:01Z
2023-06-22T03:12:49Z,42.805,6.029,13.3028,4.60116,2470.763,2023-6-22T05:15:04Z
2023-06-22T03:15:52Z,42.805,6.029,13.3033,4.60110,2470.74,2023-6-22T05:18:07Z
2023-06-22T03:18:55Z,42.805,6.029,13.3036,4.60119,2470.787,2023-6-22T05:21:10Z
2023-06-22T03:21:58Z,42.805,6.029,13.3038,4.60108,2470.777,2023-6-22T05:24:13Z
2023-06-22T03:25:01Z,42.805,6.029,13.3039,4.60122,2470.787,2023-6-22T05:27:16Z
2023-06-22T03:28:04Z,42.805,6.029,13.3043,4.60130,2470.787,2023-6-22T05:30:19Z
2023-06-22T03:31:08Z,42.805,6.029,13.3029,4.60112,2470.8,2023-6-22T05:33:22Z
2023-06-22T03:34:11Z,42.805,6.029,13.3032,4.60098,2470.777,2023-6-22T05:36:25Z
2023-06-22T03:37:14Z,42.805,6.029,13.3041,4.60110,2470.717,2023-6-22T05:39:28Z
2023-06-22T03:40:17Z,42.805,6.029,13.3031,4.60108,2470.754,2023-6-22T05:42:31Z
2023-06-22T03:43:20Z,42.805,6.029,13.3044,4.60117,2470.74,2023-6-22T05:45:35Z
2023-06-22T03:46:23Z,42.805,6.029,13.3038,4.60131,2470.754,2023-6-22T05:48:38Z
2023-06-22T03:49:26Z,42.805,6.029,13.3034,4.60119,2470.693,2023-6-22T05:51:41Z
2023-06-22T03:52:29Z,42.805,6.029,13.3034,4.60109,2470.754,2023-6-22T05:54:44Z
2023-06-22T03:55:32Z,42.805,6.029,13.3030,4.60107,2470.74,2023-6-22T05:57:47Z
2023-06-22T03:58:35Z,42.805,6.029,13.3031,4.60104,2470.777,2023-6-22T06:00:50Z
2023-06-22T04:01:38Z,42.805,6.029,13.3032,4.60127,2470.754,2023-6-22T06:03:53Z
2023-06-22T04:04:41Z,42.805,6.029,13.3034,4.60119,2470.74,2023-6-22T06:06:56Z
2023-06-22T04:07:45Z,42.805,6.029,13.3034,4.60115,2470.754,2023-6-22T06:09:59Z
2023-06-22T04:10:48Z,42.805,6.029,13.3047,4.60121,2470.787,2023-6-22T06:13:02Z
2023-06-22T04:13:51Z,42.805,6.029,13.3030,4.60132,2470.754,2023-6-22T06:16:05Z
2023-06-22T04:16:54Z,42.805,6.029,13.3032,4.60125,2470.717,2023-6-22T06:19:08Z
2023-06-22T04:19:57Z,42.805,6.029,13.3039,4.60125,2470.763,2023-6-22T06:22:12Z
2023-06-22T04:23:00Z,42.805,6.029,13.3043,4.60132,2470.717,2023-6-22T06:25:15Z
2023-06-22T04:26:03Z,42.805,6.029,13.3030,4.60107,2470.754,2023-6-22T06:28:18Z
2023-06-22T04:29:06Z,42.805,6.029,13.3029,4.60114,2470.754,2023-6-22T06:31:21Z
2023-06-22T04:32:09Z,42.805,6.029,13.3039,4.60121,2470.754,2023-6-22T06:34:24Z
2023-06-22T04:35:12Z,42.805,6.029,13.3033,4.60110,2470.717,2023-6-22T06:37:27Z
2023-06-22T04:38:15Z,42.805,6.029,13.3030,4.60113,2470.763,2023-6-22T06:40:30Z
2023-06-22T04:41:18Z,42.805,6.029,13.3034,4.60114,2470.717,2023-6-22T06:43:33Z
2023-06-22T04:44:22Z,42.805,6.029,13.3034,4.60114,2470.74,2023-6-22T06:46:36Z
2023-06-22T04:47:25Z,42.805,6.029,13.3034,4.60110,2470.717,2023-6-22T06:49:39Z
2023-06-22T04:50:28Z,42.805,6.029,13.3034,4.60122,2470.777,2023-6-22T06:52:42Z
2023-06-22T04:53:31Z,42.805,6.029,13.3036,4.60102,2470.73,2023-6-22T06:55:46Z
2023-06-22T04:56:34Z,42.805,6.029,13.3034,4.60109,2470.754,2023-6-22T06:58:49Z
2023-06-22T04:59:37Z,42.805,6.029,13.3033,4.60104,2470.74,2023-6-22T07:01:52Z
2023-06-22T05:02:40Z,42.805,6.029,13.3034,4.60119,2470.74,2023-6-22T07:04:55Z
2023-06-22T05:05:43Z,42.805,6.029,13.3044,4.60127,2470.8,2023-6-22T07:07:58Z
2023-06-22T05:08:46Z,42.805,6.029,13.3030,4.60112,2470.73,2023-6-22T07:11:01Z
2023-06-22T05:11:49Z,42.805,6.029,13.3031,4.60113,2470.717,2023-6-22T07:14:04Z
2023-06-22T05:14:52Z,42.805,6.029,13.3031,4.60120,2470.73,2023-6-22T07:17:07Z
2023-06-22T05:17:55Z,42.805,6.029,13.3033,4.60112,2470.717,2023-6-22T07:20:10Z
2023-06-22T05:20:59Z,42.805,6.029,13.3029,4.60113,2470.717,2023-6-22T07:23:13Z
2023-06-22T05:24:02Z,42.805,6.029,13.3033,4.60114,2470.717,2023-6-22T07:26:16Z
2023-06-22T05:27:05Z,42.805,6.029,13.3036,4.60122,2470.74,2023-6-22T07:29:19Z
2023-06-22T05:30:08Z,42.805,6.029,13.3039,4.60128,2470.74,2023-6-22T07:32:22Z
2023-06-22T05:33:11Z,42.805,6.029,13.3035,4.60127,2470.73,2023-6-22T07:35:26Z
2023-06-22T05:36:14Z,42.805,6.029,13.3036,4.60128,2470.74,2023-6-22T07:38:29Z
2023-06-22T05:39:17Z,42.805,6.029,13.3043,4.60119,2470.74,2023-6-22T07:41:32Z
2023-06-22T05:42:20Z,42.805,6.029,13.3041,4.60130,2470.717,2023-6-22T07:44:35Z
2023-06-22T05:45:23Z,42.805,6.029,13.3027,4.60118,2470.754,2023-6-22T07:47:38Z
2023-06-22T05:48:26Z,42.805,6.029,13.3029,4.60116,2470.74,2023-6-22T07:50:41Z
2023-06-22T05:51:29Z,42.805,6.029,13.3043,4.60133,2470.74,2023-6-22T07:53:44Z
2023-06-22T05:54:32Z,42.805,6.029,13.3036,4.60132,2470.754,2023-6-22T07:56:47Z
2023-06-22T05:57:36Z,42.805,6.029,13.3033,4.60116,2470.777,2023-6-22T07:59:50Z
2023-06-22T06:00:39Z,42.805,6.029,13.3034,4.60110,2470.777,2023-6-22T08:02:53Z
2023-06-22T06:03:42Z,42.805,6.029,13.3049,4.60140,2470.754,2023-6-22T08:05:56Z
2023-06-22T06:06:45Z,42.805,6.029,13.3036,4.60119,2470.763,2023-6-22T08:09:00Z
2023-06-22T06:09:48Z,42.805,6.029,13.3029,4.60107,2470.74,2023-6-22T08:12:03Z
2023-06-22T06:12:51Z,42.805,6.029,13.3032,4.60111,2470.74,2023-6-22T08:15:06Z
2023-06-22T06:15:54Z,42.805,6.029,13.3033,4.60118,2470.763,2023-6-22T08:18:09Z
2023-06-22T06:18:57Z,42.805,6.029,13.3032,4.60130,2470.726,2023-6-22T08:21:12Z
2023-06-22T06:22:00Z,42.805,6.029,13.3033,4.60110,2470.787,2023-6-22T08:24:15Z
2023-06-22T06:25:03Z,42.805,6.029,13.3037,4.60117,2470.75,2023-6-22T08:27:18Z
2023-06-22T06:28:06Z,42.805,6.029,13.3054,4.60122,2470.787,2023-6-22T08:30:21Z
2023-06-22T06:31:10Z,42.805,6.029,13.3031,4.60121,2470.763,2023-6-22T08:33:25Z
2023-06-22T06:34:13Z,42.805,6.029,13.3028,4.60105,2470.74,2023-6-22T08:36:28Z
2023-06-22T06:37:16Z,42.805,6.029,13.3043,4.60135,2470.763,2023-6-22T08:39:31Z
2023-06-22T06:40:20Z,42.805,6.029,13.3032,4.60115,2470.777,2023-6-22T08:42:34Z
2023-06-22T06:43:23Z,42.805,6.029,13.3045,4.60119,2470.763,2023-6-22T08:45:37Z
2023-06-22T06:46:26Z,42.805,6.029,13.3034,4.60123,2470.8,2023-6-22T08:48:40Z
2023-06-22T06:49:29Z,42.805,6.029,13.3040,4.60125,2470.763,2023-6-22T08:51:44Z
2023-06-22T06:52:32Z,42.805,6.029,13.3028,4.60125,2470.763,2023-6-22T08:54:47Z
2023-06-22T06:55:35Z,42.805,6.029,13.3031,4.60128,2470.777,2023-6-22T08:57:50Z
2023-06-22T06:58:38Z,42.805,6.029,13.3038,4.60123,2470.74,2023-6-22T09:00:53Z
2023-06-22T07:01:41Z,42.805,6.029,13.3041,4.60114,2470.787,2023-6-22T09:03:56Z
2023-06-22T07:04:44Z,42.805,6.029,13.3031,4.60127,2470.824,2023-6-22T09:06:59Z
2023-06-22T07:07:47Z,42.805,6.029,13.3029,4.60127,2470.763,2023-6-22T09:10:02Z
2023-06-22T07:10:50Z,42.805,6.029,13.3034,4.60119,2470.763,2023-6-22T09:13:05Z
2023-06-22T07:13:53Z,42.805,6.029,13.3030,4.60097,2470.75,2023-6-22T09:16:08Z
2023-06-22T07:16:57Z,42.805,6.029,13.3037,4.60122,2470.787,2023-6-22T09:19:11Z
2023-06-22T07:20:00Z,42.805,6.029,13.3033,4.60131,2470.763,2023-6-22T09:22:14Z
2023-06-22T07:23:03Z,42.805,6.029,13.3040,4.60135,2470.81,2023-6-22T09:25:17Z
2023-06-22T07:26:06Z,42.805,6.029,13.3029,4.60115,2470.824,2023-6-22T09:28:20Z
2023-06-22T07:29:09Z,42.805,6.029,13.3031,4.60114,2470.787,2023-6-22T09:31:24Z
2023-06-22T07:32:12Z,42.805,6.029,13.3031,4.60114,2470.8,2023-6-22T09:34:27Z
2023-06-22T07:35:15Z,42.805,6.029,13.3044,4.60137,2470.81,2023-6-22T09:37:30Z
2023-06-22T07:38:18Z,42.805,6.029,13.3040,4.60115,2470.824,2023-6-22T09:40:33Z
2023-06-22T07:41:21Z,42.805,6.029,13.3031,4.60101,2470.763,2023-6-22T09:43:36Z
2023-06-22T07:44:24Z,42.805,6.029,13.3032,4.60090,2470.8,2023-6-22T09:46:39Z
2023-06-22T07:47:27Z,42.805,6.029,13.3034,4.60111,2470.824,2023-6-22T09:49:42Z
2023-06-22T07:50:30Z,42.805,6.029,13.3030,4.60125,2470.787,2023-6-22T09:52:45Z
2023-06-22T07:53:34Z,42.805,6.029,13.3029,4.60106,2470.81,2023-6-22T09:55:48Z
2023-06-22T07:56:37Z,42.805,6.029,13.3029,4.60107,2470.787,2023-6-22T09:58:51Z
2023-06-22T07:59:40Z,42.805,6.029,13.3034,4.60114,2470.787,2023-6-22T10:01:54Z
2023-06-22T08:02:43Z,42.805,6.029,13.3027,4.60108,2470.824,2023-6-22T10:04:58Z
2023-06-22T08:05:46Z,42.805,6.029,13.3036,4.60110,2470.8,2023-6-22T10:08:01Z
2023-06-22T08:08:49Z,42.805,6.029,13.3031,4.60113,2470.81,2023-6-22T10:11:04Z
2023-06-22T08:11:52Z,42.805,6.029,13.3023,4.60107,2470.81,2023-6-22T10:14:07Z
2023-06-22T08:14:55Z,42.805,6.029,13.3038,4.60119,2470.81,2023-6-22T10:17:10Z
2023-06-22T08:17:58Z,42.805,6.029,13.3025,4.60112,2470.787,2023-6-22T10:20:13Z
2023-06-22T08:21:01Z,42.805,6.029,13.3025,4.60106,2470.787,2023-6-22T10:23:16Z
2023-06-22T08:24:04Z,42.805,6.029,13.3029,4.60110,2470.8,2023-6-22T10:26:19Z
2023-06-22T08:27:08Z,42.805,6.029,13.3029,4.60107,2470.787,2023-6-22T10:29:22Z
2023-06-22T08:30:09Z,42.805,6.029,13.3031,4.60125,2470.8,2023-6-22T10:32:24Z
2023-06-22T08:33:12Z,42.805,6.029,13.3036,4.60119,2470.787,2023-6-22T10:35:27Z
2023-06-22T08:36:15Z,42.805,6.029,13.3032,4.60108,2470.824,2023-6-22T10:38:30Z
2023-06-22T08:39:18Z,42.805,6.029,13.3036,4.60119,2470.81,2023-6-22T10:41:33Z
2023-06-22T08:42:21Z,42.805,6.029,13.3031,4.60102,2470.833,2023-6-22T10:44:36Z
2023-06-22T08:45:24Z,42.805,6.029,13.3046,4.60125,2470.796,2023-6-22T10:47:39Z
2023-06-22T08:48:27Z,42.805,6.029,13.3030,4.60102,2470.787,2023-6-22T10:50:42Z
2023-06-22T08:51:31Z,42.805,6.029,13.3032,4.60117,2470.81,2023-6-22T10:53:45Z
2023-06-22T08:54:34Z,42.805,6.029,13.3027,4.60103,2470.81,2023-6-22T10:56:48Z
2023-06-22T08:57:37Z,42.805,6.029,13.3031,4.60106,2470.787,2023-6-22T10:59:51Z
2023-06-22T09:00:40Z,42.805,6.029,13.3027,4.60130,2470.763,2023-6-22T11:02:55Z
2023-06-22T09:03:43Z,42.805,6.029,13.3027,4.60121,2470.81,2023-6-22T11:05:58Z
2023-06-22T09:06:46Z,42.805,6.029,13.3043,4.60135,2470.787,2023-6-22T11:09:01Z
2023-06-22T09:09:49Z,42.805,6.029,13.3029,4.60116,2470.787,2023-6-22T11:12:04Z
2023-06-22T09:12:52Z,42.805,6.029,13.3033,4.60125,2470.787,2023-6-22T11:15:07Z
2023-06-22T09:15:55Z,42.805,6.029,13.3031,4.60115,2470.787,2023-6-22T11:18:10Z
2023-06-22T09:18:58Z,42.805,6.029,13.3033,4.60117,2470.833,2023-6-22T11:21:13Z
2023-06-22T09:22:01Z,42.805,6.029,13.3029,4.60102,2470.847,2023-6-22T11:24:16Z
2023-06-22T09:25:05Z,42.805,6.029,13.3035,4.60128,2470.8,2023-6-22T11:27:19Z
2023-06-22T09:28:08Z,42.805,6.029,13.3032,4.60109,2470.833,2023-6-22T11:30:22Z
2023-06-22T09:31:11Z,42.805,6.029,13.3032,4.60117,2470.8,2023-6-22T11:33:25Z
2023-06-22T09:34:14Z,42.805,6.029,13.3047,4.60139,2470.8,2023-6-22T11:36:29Z
2023-06-22T09:37:17Z,42.805,6.029,13.3029,4.60112,2470.833,2023-6-22T11:39:32Z
2023-06-22T09:40:20Z,42.805,6.029,13.3034,4.60108,2470.8,2023-6-22T11:42:35Z
2023-06-22T09:43:23Z,42.805,6.029,13.3037,4.60106,2470.833,2023-6-22T11:45:38Z
2023-06-22T09:46:26Z,42.805,6.029,13.3038,4.60126,2470.787,2023-6-22T11:48:41Z
2023-06-22T09:49:29Z,42.805,6.029,13.3028,4.60104,2470.847,2023-6-22T11:51:44Z
2023-06-22T09:52:32Z,42.805,6.029,13.3031,4.60112,2470.8,2023-6-22T11:54:47Z
2023-06-22T09:55:35Z,42.805,6.029,13.3031,4.60114,2470.824,2023-6-22T11:57:50Z
2023-06-22T09:58:39Z,42.805,6.029,13.3031,4.60139,2470.81,2023-6-22T12:00:53Z
2023-06-22T10:01:42Z,42.805,6.029,13.3029,4.60131,2470.763,2023-6-22T12:03:56Z
2023-06-22T10:04:45Z,42.805,6.029,13.3029,4.60114,2470.824,2023-6-22T12:06:59Z
2023-06-22T10:07:48Z,42.805,6.029,13.3039,4.60114,2470.833,2023-6-22T12:10:03Z
2023-06-22T10:10:51Z,42.805,6.029,13.3059,4.60122,2470.833,2023-6-22T12:13:06Z
2023-06-22T10:13:54Z,42.805,6.029,13.3048,4.60159,2470.787,2023-6-22T12:16:09Z
2023-06-22T10:16:57Z,42.805,6.029,13.3038,4.60117,2470.81,2023-6-22T12:19:12Z
2023-06-22T10:20:00Z,42.805,6.029,13.3042,4.60126,2470.787,2023-6-22T12:22:15Z
2023-06-22T10:23:03Z,42.805,6.029,13.3032,4.60129,2470.8,2023-6-22T12:25:18Z
2023-06-22T10:26:06Z,42.805,6.029,13.3048,4.60143,2470.8,2023-6-22T12:28:21Z
2023-06-22T10:29:09Z,42.805,6.029,13.3030,4.60110,2470.787,2023-6-22T12:31:24Z
2023-06-22T10:32:12Z,42.805,6.029,13.3033,4.60135,2470.777,2023-6-22T12:34:27Z
2023-06-22T10:35:16Z,42.805,6.029,13.3031,4.60125,2470.824,2023-6-22T12:37:30Z
2023-06-22T10:38:19Z,42.805,6.029,13.3061,4.60146,2470.787,2023-6-22T12:40:33Z
2023-06-22T10:41:22Z,42.805,6.029,13.3038,4.60132,2470.8,2023-6-22T12:43:36Z
2023-06-22T10:44:25Z,42.805,6.029,13.3047,4.60142,2470.8,2023-6-22T12:46:40Z
2023-06-22T10:47:28Z,42.805,6.029,13.3048,4.60131,2470.8,2023-6-22T12:49:43Z
2023-06-22T10:50:31Z,42.805,6.029,13.3040,4.60148,2470.824,2023-6-22T12:52:46Z
2023-06-22T10:53:34Z,42.805,6.029,13.3033,4.60130,2470.777,2023-6-22T12:55:49Z
2023-06-22T10:56:37Z,42.805,6.029,13.3038,4.60127,2470.787,2023-6-22T12:58:52Z
2023-06-22T10:59:40Z,42.805,6.029,13.3035,4.60136,2470.74,2023-6-22T13:01:55Z
2023-06-22T11:02:43Z,42.805,6.029,13.3044,4.60114,2470.74,2023-6-22T13:04:58Z
2023-06-22T11:05:46Z,42.805,6.029,13.3039,4.60113,2470.777,2023-6-22T13:08:01Z
2023-06-22T11:08:50Z,42.805,6.029,13.3035,4.60116,2470.8,2023-6-22T13:11:04Z
2023-06-22T11:11:53Z,42.805,6.029,13.3052,4.60138,2470.777,2023-6-22T13:14:07Z
2023-06-22T11:14:56Z,42.805,6.029,13.3029,4.60119,2470.8,2023-6-22T13:17:10Z
2023-06-22T11:17:59Z,42.805,6.029,13.3034,4.60119,2470.787,2023-6-22T13:20:14Z
2023-06-22T11:21:02Z,42.805,6.029,13.3030,4.60117,2470.763,2023-6-22T13:23:17Z
2023-06-22T11:24:05Z,42.805,6.029,13.3046,4.60119,2470.763,2023-6-22T13:26:20Z
2023-06-22T11:27:08Z,42.805,6.029,13.3036,4.60139,2470.763,2023-6-22T13:29:23Z
2023-06-22T11:30:11Z,42.805,6.029,13.3037,4.60136,2470.74,2023-6-22T13:32:26Z
2023-06-22T11:33:14Z,42.805,6.029,13.3050,4.60121,2470.777,2023-6-22T13:35:29Z
2023-06-22T11:36:17Z,42.805,6.029,13.3033,4.60130,2470.726,2023-6-22T13:38:32Z
2023-06-22T11:39:20Z,42.805,6.029,13.3030,4.60111,2470.763,2023-6-22T13:41:35Z
2023-06-22T11:42:24Z,42.805,6.029,13.3035,4.60120,2470.763,2023-6-22T13:44:38Z
2023-06-22T11:45:27Z,42.805,6.029,13.3039,4.60154,2470.754,2023-6-22T13:47:41Z
2023-06-22T11:48:30Z,42.805,6.029,13.3036,4.60133,2470.74,2023-6-22T13:50:44Z
2023-06-22T11:51:33Z,42.805,6.029,13.3043,4.60120,2470.777,2023-6-22T13:53:48Z
2023-06-22T11:54:36Z,42.805,6.029,13.3034,4.60129,2470.74,2023-6-22T13:56:51Z
2023-06-22T11:57:39Z,42.805,6.029,13.3034,4.60147,2470.717,2023-6-22T13:59:54Z
2023-06-22T12:00:42Z,42.805,6.029,13.3034,4.60144,2470.754,2023-6-22T14:02:57Z
2023-06-22T12:03:45Z,42.805,6.029,13.3034,4.60138,2470.74,2023-6-22T14:06:00Z
2023-06-22T12:06:48Z,42.805,6.029,13.3048,4.60151,2470.74,2023-6-22T14:09:03Z
2023-06-22T12:09:51Z,42.805,6.029,13.3046,4.60167,2470.754,2023-6-22T14:12:06Z
2023-06-22T12:12:54Z,42.805,6.029,13.3056,4.60152,2470.754,2023-6-22T14:15:09Z
2023-06-22T12:15:58Z,42.805,6.029,13.3039,4.60131,2470.754,2023-6-22T14:18:12Z
2023-06-22T12:19:01Z,42.805,6.029,13.3041,4.60150,2470.74,2023-6-22T14:21:15Z
2023-06-22T12:22:04Z,42.805,6.029,13.3056,4.60150,2470.74,2023-6-22T14:24:18Z
2023-06-22T12:25:07Z,42.805,6.029,13.3051,4.60152,2470.693,2023-6-22T14:27:22Z
2023-06-22T12:28:10Z,42.805,6.029,13.3039,4.60141,2470.717,2023-6-22T14:30:25Z
2023-06-22T12:31:12Z,42.805,6.029,13.3034,4.60132,2470.73,2023-6-22T14:33:26Z
2023-06-22T12:34:15Z,42.805,6.029,13.3046,4.60127,2470.73,2023-6-22T14:36:29Z
2023-06-22T12:37:18Z,42.805,6.029,13.3033,4.60133,2470.74,2023-6-22T14:39:33Z
2023-06-22T12:40:21Z,42.805,6.029,13.3048,4.60144,2470.707,2023-6-22T14:42:36Z
2023-06-22T12:43:24Z,42.805,6.029,13.3037,4.60150,2470.717,2023-6-22T14:45:39Z
2023-06-22T12:46:27Z,42.805,6.029,13.3032,4.60162,2470.73,2023-6-22T14:48:42Z
2023-06-22T12:49:30Z,42.805,6.029,13.3043,4.60128,2470.717,2023-6-22T14:51:45Z
2023-06-22T12:52:33Z,42.805,6.029,13.3059,4.60147,2470.717,2023-6-22T14:54:48Z
2023-06-22T12:55:36Z,42.805,6.029,13.3057,4.60143,2470.717,2023-6-22T14:57:51Z
2023-06-22T12:58:39Z,42.805,6.029,13.3035,4.60130,2470.717,2023-6-22T15:00:54Z
2023-06-22T13:01:43Z,42.805,6.029,13.3048,4.60147,2470.707,2023-6-22T15:03:57Z
2023-06-22T13:04:46Z,42.805,6.029,13.3043,4.60126,2470.74,2023-6-22T15:07:00Z
2023-06-22T13:07:49Z,42.805,6.029,13.3044,4.60141,2470.693,2023-6-22T15:10:03Z
2023-06-22T13:10:52Z,42.805,6.029,13.3059,4.60160,2470.707,2023-6-22T15:13:06Z
2023-06-22T13:13:55Z,42.805,6.029,13.3051,4.60143,2470.707,2023-6-22T15:16:10Z
2023-06-22T13:16:58Z,42.805,6.029,13.3047,4.60168,2470.693,2023-6-22T15:19:13Z
2023-06-22T13:20:01Z,42.805,6.029,13.3068,4.60137,2470.74,2023-6-22T15:22:16Z
2023-06-22T13:23:04Z,42.805,6.029,13.3049,4.60141,2470.717,2023-6-22T15:25:19Z
2023-06-22T13:26:07Z,42.805,6.029,13.3051,4.60117,2470.717,2023-6-22T15:28:22Z
2023-06-22T13:29:10Z,42.805,6.029,13.3052,4.60159,2470.73,2023-6-22T15:31:25Z
2023-06-22T13:32:13Z,42.805,6.029,13.3031,4.60167,2470.717,2023-6-22T15:34:28Z
2023-06-22T13:35:17Z,42.805,6.029,13.3052,4.60129,2470.717,2023-6-22T15:37:31Z
2023-06-22T13:38:20Z,42.805,6.029,13.3033,4.60127,2470.684,2023-6-22T15:40:34Z
2023-06-22T13:41:23Z,42.805,6.029,13.3039,4.60150,2470.707,2023-6-22T15:43:37Z
2023-06-22T13:44:26Z,42.805,6.029,13.3062,4.60190,2470.693,2023-6-22T15:46:40Z
2023-06-22T13:47:29Z,42.805,6.029,13.3056,4.60165,2470.693,2023-6-22T15:49:44Z
2023-06-22T13:50:32Z,42.805,6.029,13.3060,4.60105,2470.684,2023-6-22T15:52:47Z
2023-06-22T13:53:35Z,42.805,6.029,13.3051,4.60148,2470.67,2023-6-22T15:55:50Z
2023-06-22T13:56:38Z,42.805,6.029,13.3051,4.60112,2470.717,2023-6-22T15:58:53Z
2023-06-22T13:59:41Z,42.805,6.029,13.3046,4.60149,2470.693,2023-6-22T16:01:56Z
2023-06-22T14:02:44Z,42.805,6.029,13.3058,4.60133,2470.67,2023-6-22T16:04:59Z
2023-06-22T14:05:47Z,42.805,6.029,13.3058,4.60149,2470.717,2023-6-22T16:08:02Z
2023-06-22T14:08:50Z,42.805,6.029,13.3046,4.60151,2470.684,2023-6-22T16:11:05Z
2023-06-22T14:11:54Z,42.805,6.029,13.3046,4.60141,2470.646,2023-6-22T16:14:08Z
2023-06-22T14:14:57Z,42.805,6.029,13.3043,4.60148,2470.693,2023-6-22T16:17:11Z
2023-06-22T14:18:00Z,42.805,6.029,13.3043,4.60144,2470.693,2023-6-22T16:20:14Z
2023-06-22T14:21:03Z,42.805,6.029,13.3056,4.60147,2470.67,2023-6-22T16:23:18Z
2023-06-22T14:24:06Z,42.805,6.029,13.3056,4.60156,2470.67,2023-6-22T16:26:21Z
2023-06-22T14:27:09Z,42.805,6.029,13.3041,4.60146,2470.637,2023-6-22T16:29:24Z
2023-06-22T14:30:10Z,42.805,6.029,13.3058,4.60143,2470.707,2023-6-22T16:32:25Z
2023-06-22T14:33:13Z,42.805,6.029,13.3061,4.60140,2470.707,2023-6-22T16:35:28Z
2023-06-22T14:36:16Z,42.805,6.029,13.3044,4.60194,2470.67,2023-6-22T16:38:31Z
2023-06-22T14:39:20Z,42.805,6.029,13.3039,4.60169,2470.693,2023-6-22T16:41:34Z
2023-06-22T14:42:23Z,42.805,6.029,13.3056,4.60181,2470.693,2023-6-22T16:44:37Z
2023-06-22T14:45:26Z,42.805,6.029,13.3070,4.60173,2470.707,2023-6-22T16:47:40Z
2023-06-22T14:48:29Z,42.805,6.029,13.3051,4.60208,2470.67,2023-6-22T16:50:43Z
2023-06-22T14:51:32Z,42.805,6.029,13.3051,4.60164,2470.693,2023-6-22T16:53:47Z
2023-06-22T14:54:35Z,42.805,6.029,13.3056,4.60179,2470.684,2023-6-22T16:56:50Z
2023-06-22T14:57:38Z,42.805,6.029,13.3050,4.60203,2470.67,2023-6-22T16:59:53Z
2023-06-22T15:00:41Z,42.805,6.029,13.3073,4.60185,2470.693,2023-6-22T17:02:56Z
2023-06-22T15:03:44Z,42.805,6.029,13.3039,4.60153,2470.707,2023-6-22T17:05:59Z
2023-06-22T15:06:47Z,42.805,6.029,13.3059,4.60176,2470.661,2023-6-22T17:09:02Z
2023-06-22T15:09:50Z,42.805,6.029,13.3056,4.60155,2470.661,2023-6-22T17:12:05Z
2023-06-22T15:12:53Z,42.805,6.029,13.3071,4.60138,2470.67,2023-6-22T17:15:08Z